GW0751 Weather Reports


Display with metric or nautical units.
time (UTC)temp
F
wind
direction
speed
MPH
gust
MPH
rain 1hr
in
rain 24hr
in
rain mn
in
humidity
%
barometer
mb
20260508202744 77 135 5.0 5.0 0.00 0.00 0.01 58 1017.0
20260508202243 78 203 3.0 3.0 0.00 0.00 0.01 58 1017.0
20260508201723 77 113 3.0 3.0 0.00 0.00 0.01 58 1017.0
20260508201203 77 68 4.0 4.0 0.00 0.00 0.01 57 1017.0
20260508200644 77 158 5.0 5.0 0.00 0.00 0.01 57 1017.2
20260508200144 78 203 3.0 3.0 0.00 0.00 0.01 58 1017.2
20260508195629 76 90 4.0 4.0 0.00 0.00 0.01 59 1017.2
20260508195109 77 270 3.0 3.0 0.00 0.00 0.01 58 1017.3
20260508194528 77 0 3.0 3.0 0.00 0.00 0.01 58 1017.3
20260508193453 76 68 4.0 4.0 0.00 0.00 0.01 59 1017.4
20260508192933 75 68 4.0 4.0 0.00 0.00 0.01 59 1017.4
20260508192414 75 68 4.0 4.0 0.00 0.00 0.01 59 1017.4
20260508191913 76 68 4.0 4.0 0.00 0.00 0.01 58 1017.5
20260508191354 75 45 3.0 3.0 0.00 0.00 0.01 59 1017.5
20260508190839 75 113 5.0 5.0 0.00 0.00 0.01 58 1017.5
20260508185223 74 180 4.0 4.0 0.00 0.00 0.01 60 1017.6
20260508184703 75 270 3.0 3.0 0.00 0.00 0.01 59 1017.6
20260508184144 74 293 3.0 3.0 0.00 0.00 0.01 60 1017.9
20260508183623 74 90 3.0 3.0 0.00 0.00 0.01 61 1017.9
20260508183109 71 180 4.0 4.0 0.00 0.00 0.01 65 1017.9
20260508182549 71 180 3.0 3.0 0.00 0.00 0.01 63 1017.9
20260508182009 69 180 3.0 3.0 0.00 0.00 0.01 66 1017.9
20260508180954 69 225 3.0 3.0 0.00 0.00 0.01 65 1018.0
20260508180434 69 203 5.0 5.0 0.00 0.00 0.01 65 1017.9
20260508175914 68 135 3.0 3.0 0.00 0.00 0.01 68 1017.9
20260508175354 67 0 2.0 2.0 0.00 0.00 0.01 68 1018.1
20260508174839 66 225 4.0 4.0 0.00 0.00 0.01 70 1018.1
20260508174319 66 180 2.0 2.0 0.00 0.00 0.01 70 1018.2
20260508173759 64 338 2.0 2.0 0.00 0.00 0.01 74 1018.2
20260508173224 64 270 1.0 1.0 0.00 0.00 0.01 75 1018.2
20260508172704 63 293 2.0 2.0 0.00 0.00 0.01 76 1018.2
20260508172144 61 113 3.0 3.0 0.00 0.00 0.01 78 1018.2
20260508171109 61 248 0.0 0.0 0.00 0.00 0.01 79 1018.0
20260508170549 61 23 0.0 0.0 0.00 0.00 0.01 79 1018.0
20260508164954 59 270 0.0 0.0 0.00 0.00 0.01 82 1017.9
20260508164434 59 180 0.0 0.0 0.00 0.00 0.01 82 1017.9
20260508163914 60 225 0.0 0.0 0.00 0.00 0.01 81 1018.0
20260508162839 59 135 2.0 2.0 0.00 0.00 0.01 81 1017.9
20260508162319 59 248 1.0 1.0 0.00 0.00 0.01 82 1017.9
20260508161759 59 23 0.0 0.0 0.00 0.00 0.01 83 1017.9
20260508161239 58 338 0.0 0.0 0.00 0.00 0.01 84 1017.9
20260508160204 59 248 0.0 0.0 0.00 0.00 0.01 87 1017.9
20260508155644 59 113 0.0 0.0 0.00 0.00 0.01 89 1017.9
20260508155124 57 113 1.0 1.0 0.00 0.00 0.01 93 1017.8
20260508154604 55 68 1.0 1.0 0.00 0.00 0.01 94 1017.8
20260508154049 54 158 0.0 0.0 0.00 0.00 0.01 96 1017.7
20260508153009 53 23 2.0 2.0 0.00 0.00 0.01 98 1017.7
20260508152509 53 113 0.0 0.0 0.00 0.00 0.01 98 1017.7
20260508152009 52 90 2.0 2.0 0.00 0.00 0.01 98 1017.7
20260508151449 52 113 1.0 1.0 0.00 0.00 0.01 98 1017.6
20260508150949 51 68 2.0 2.0 0.00 0.00 0.01 98 1017.6
20260508150434 51 135 2.0 2.0 0.00 0.00 0.01 98 1017.5
20260508145934 51 158 1.0 1.0 0.00 0.00 0.01 98 1017.5
20260508144854 51 113 2.0 2.0 0.00 0.00 0.01 98 1017.7
20260508144334 51 293 0.0 0.0 0.00 0.00 0.01 98 1017.4
20260508143819 51 225 0.0 0.0 0.00 0.00 0.01 98 1017.4
20260508143259 51 0 0.0 0.0 0.00 0.00 0.01 98 1017.4
20260508142220 51 68 0.0 0.0 0.00 0.00 0.01 98 1017.3
20260508141704 51 23 0.0 0.0 0.00 0.00 0.01 98 1017.2
20260508140644 50 23 0.0 0.0 0.00 0.00 0.01 98 1017.2
20260508140124 50 113 0.0 0.0 0.00 0.00 0.01 98 1017.2
20260508135049 50 90 1.0 1.0 0.00 0.00 0.01 98 1017.1
20260508134529 50 113 0.0 0.0 0.00 0.00 0.01 98 1017.1
20260508133449 50 45 0.0 0.0 0.00 0.00 0.01 98 1017.0
20260508132934 50 293 0.0 0.0 0.00 0.00 0.01 98 1017.1
20260508132415 50 225 0.0 0.0 0.00 0.00 0.01 98 1017.1
20260508131914 50 225 0.0 0.0 0.00 0.00 0.01 98 1017.0
20260508130834 50 315 0.0 0.0 0.00 0.00 0.01 98 1017.0
20260508130319 50 158 0.0 0.0 0.00 0.00 0.01 98 1017.0
20260508125759 50 113 0.0 0.0 0.00 0.00 0.01 98 1017.0
20260508125239 50 158 0.0 0.0 0.00 0.00 0.01 98 1016.7
20260508124204 50 270 0.0 0.0 0.00 0.00 0.01 98 1016.7
20260508123644 50 180 1.0 1.0 0.01 0.00 0.01 98 1016.7
20260508123124 50 113 1.0 1.0 0.01 0.00 0.01 98 1016.7
20260508122049 50 90 2.0 2.0 0.01 0.00 0.01 98 1016.7
20260508121530 50 23 0.0 0.0 0.01 0.00 0.01 98 1016.7
20260508115934 50 68 3.0 3.0 0.01 0.00 0.01 98 1016.7
20260508115414 50 0 1.0 1.0 0.01 0.00 0.01 98 1016.7
20260508114334 50 90 1.0 1.0 0.01 0.00 0.01 98 1016.7
20260508113259 50 90 1.0 1.0 0.00 0.00 0.00 97 1016.7
20260508112739 50 113 0.0 0.0 0.00 0.00 0.00 97 1016.9
20260508111704 50 68 2.0 2.0 0.00 0.00 0.00 97 1016.7
20260508111144 50 68 2.0 2.0 0.00 0.00 0.00 97 1016.7
20260508110624 50 90 1.0 1.0 0.00 0.00 0.00 97 1016.7
20260508110104 50 68 2.0 2.0 0.00 0.00 0.00 97 1016.7
20260508105049 50 158 0.0 0.0 0.00 0.00 0.00 97 1017.0
20260508104529 50 23 1.0 1.0 0.00 0.00 0.00 97 1017.0
20260508104009 50 90 1.0 1.0 0.00 0.00 0.00 97 1016.9
20260508103450 50 23 0.0 0.0 0.00 0.00 0.00 97 1016.9
20260508102934 50 158 1.0 1.0 0.00 0.00 0.00 97 1016.7
20260508102414 50 158 0.0 0.0 0.00 0.00 0.00 97 1016.7
20260508101335 50 158 0.0 0.0 0.00 0.00 0.00 97 1016.7
20260508100820 50 158 0.0 0.0 0.00 0.00 0.00 97 1016.7
20260508095739 50 158 0.0 0.0 0.00 0.00 0.00 97 1016.9
20260508095219 50 225 0.0 0.0 0.00 0.00 0.00 97 1016.9
20260508094705 50 158 0.0 0.0 0.00 0.00 0.00 97 1016.9
20260508093604 50 180 0.0 0.0 0.00 0.00 0.00 97 1016.9
20260508093049 50 248 0.0 0.0 0.00 0.00 0.00 97 1016.7
20260508092549 50 270 0.0 0.0 0.00 0.00 0.00 97 1016.7
20260508092030 50 270 0.0 0.0 0.00 0.00 0.00 97 1016.7
20260508091509 50 225 0.0 0.0 0.00 0.00 0.00 97 1016.7
20260508090950 50 225 0.0 0.0 0.00 0.00 0.00 97 1016.7
20260508085914 50 158 0.0 0.0 0.00 0.00 0.00 97 1016.7
20260508085355 50 180 0.0 0.0 0.00 0.00 0.00 97 1016.7
20260508084835 50 45 0.0 0.0 0.00 0.00 0.00 97 1016.7
20260508084320 50 203 0.0 0.0 0.00 0.00 0.00 97 1016.7
20260508083819 50 45 2.0 2.0 0.00 0.00 0.00 97 1016.7
20260508083300 50 113 0.0 0.0 0.00 0.00 0.00 97 1016.7
20260508082219 50 180 0.0 0.0 0.00 0.00 0.00 97 1016.7
20260508080625 50 68 2.0 2.0 0.00 0.00 0.00 97 1016.7
20260508080124 50 23 2.0 2.0 0.00 0.00 0.00 97 1016.7
20260508075030 50 0 0.0 0.0 0.00 0.00 0.00 97 1016.7
20260508074510 50 0 0.0 0.0 0.00 0.00 0.00 97 1016.7
20260508073950 51 0 0.0 0.0 0.00 0.00 0.00 97 1016.7
20260508073435 50 0 0.0 0.0 0.00 0.00 0.00 97 1016.7
20260508072915 50 0 0.0 0.0 0.00 0.00 0.00 97 1016.7
20260508072356 50 0 0.0 0.0 0.00 0.00 0.00 97 1016.7
20260508071855 50 0 0.0 0.0 0.00 0.00 0.00 97 1016.7
20260508071335 50 0 0.0 0.0 0.00 0.00 0.00 96 1016.7
20260508070820 50 0 2.0 2.0 0.00 0.00 0.00 96 1016.7
20260508070300 50 0 0.0 0.0 0.00 0.00 0.00 96 1016.5
20260508065220 50 0 1.0 1.0 0.00 0.00 0.01 96 1016.5
20260508064705 50 0 0.0 0.0 0.00 0.00 0.01 96 1016.5
20260508064145 48 0 0.0 0.0 0.00 0.00 0.01 95 1016.7
20260508063645 47 248 0.0 0.0 0.00 0.00 0.01 94 1016.7
20260508062604 47 180 0.0 0.0 0.00 0.00 0.01 94 1016.5
20260508062044 48 248 0.0 0.0 0.00 0.00 0.01 94 1016.5
20260508061030 48 225 0.0 0.0 0.00 0.00 0.01 94 1016.5
20260508060510 48 225 0.0 0.0 0.00 0.00 0.01 94 1016.7
20260508055950 48 203 0.0 0.0 0.00 0.00 0.01 94 1016.7
20260508055434 48 225 0.0 0.0 0.00 0.00 0.01 94 1016.5
20260508054915 49 225 0.0 0.0 0.00 0.00 0.01 94 1016.5
20260508054355 49 225 0.0 0.0 0.00 0.00 0.01 94 1016.7
20260508053835 49 248 0.0 0.0 0.00 0.00 0.01 94 1016.7
20260508052800 49 248 0.0 0.0 0.00 0.00 0.01 94 1016.5
20260508052240 50 225 0.0 0.0 0.00 0.00 0.01 94 1016.5
20260508051200 50 248 0.0 0.0 0.00 0.00 0.01 94 1016.5
20260508050645 50 225 0.0 0.0 0.00 0.00 0.01 93 1016.5
20260508050125 50 225 0.0 0.0 0.00 0.00 0.01 93 1016.5
20260508045625 50 225 0.0 0.0 0.00 0.00 0.01 93 1016.5
20260508045125 50 248 0.0 0.0 0.00 0.00 0.01 93 1016.5
20260508044045 51 225 0.0 0.0 0.00 0.00 0.01 92 1016.5
20260508043545 51 225 0.0 0.0 0.00 0.00 0.01 92 1016.5
20260508043030 51 225 0.0 0.0 0.00 0.00 0.01 92 1016.2
20260508042010 51 225 0.0 0.0 0.00 0.00 0.01 91 1016.2
20260508041451 51 248 0.0 0.0 0.00 0.00 0.01 91 1016.2
20260508040950 51 248 0.0 0.0 0.00 0.00 0.01 90 1016.2
20260508035930 52 248 0.0 0.0 0.00 0.00 0.01 90 1016.0
20260508034855 53 225 0.0 0.0 0.00 0.00 0.01 88 1015.8
20260508033815 54 180 0.0 0.0 0.00 0.00 0.01 85 1015.6
20260508033300 55 270 0.0 0.0 0.00 0.00 0.01 84 1015.6
20260508032740 55 225 0.0 0.0 0.00 0.00 0.01 84 1015.6
20260508032220 56 180 0.0 0.0 0.00 0.00 0.01 83 1015.6
20260508031700 56 225 0.0 0.0 0.00 0.00 0.01 82 1015.6
20260508031145 57 270 0.0 0.0 0.00 0.00 0.01 80 1015.6
20260508030625 58 248 1.0 1.0 0.00 0.00 0.01 79 1015.5
20260508030105 59 248 2.0 2.0 0.00 0.00 0.01 78 1015.5
20260508025031 60 248 2.0 2.0 0.00 0.00 0.01 75 1015.3
20260508024510 61 225 3.0 3.0 0.00 0.00 0.01 74 1015.3
20260508023950 62 203 3.0 3.0 0.00 0.00 0.01 72 1015.3
20260508023430 64 225 3.0 3.0 0.00 0.00 0.01 70 1015.3
20260508022915 65 225 3.0 3.0 0.00 0.00 0.01 70 1015.3
20260508022355 66 248 1.0 1.0 0.00 0.00 0.01 68 1015.3
20260508021315 68 158 2.0 2.0 0.00 0.00 0.01 65 1015.5
20260508020800 70 248 2.0 2.0 0.00 0.00 0.01 61 1015.5
20260508020241 71 225 2.0 2.0 0.00 0.00 0.01 60 1015.5
20260508015720 74 203 3.0 3.0 0.00 0.00 0.01 58 1015.5
20260508015200 75 293 2.0 2.0 0.00 0.00 0.01 57 1015.5
20260508014645 78 248 2.0 2.0 0.00 0.00 0.01 56 1015.5
20260508014125 78 225 3.0 3.0 0.00 0.00 0.01 56 1015.5
20260508013105 78 293 2.0 2.0 0.00 0.00 0.01 56 1015.6
20260508012546 76 248 2.0 2.0 0.00 0.00 0.01 57 1015.6
20260508012045 76 225 2.0 2.0 0.00 0.00 0.01 57 1015.6
20260508011526 77 203 2.0 2.0 0.00 0.00 0.01 56 1015.6
20260508011010 78 270 3.0 3.0 0.00 0.00 0.01 56 1015.6
20260508010450 75 225 2.0 2.0 0.00 0.00 0.01 58 1015.8
20260508005930 77 225 3.0 3.0 0.00 0.00 0.01 57 1015.8
20260508004856 75 225 3.0 3.0 0.00 0.00 0.01 57 1016.0
20260508004335 76 203 4.0 4.0 0.00 0.00 0.01 57 1016.0
20260508003815 75 225 3.0 3.0 0.00 0.00 0.01 57 1016.0
20260508003255 75 203 3.0 3.0 0.00 0.00 0.01 57 1016.0
20260508002235 73 225 4.0 4.0 0.00 0.00 0.01 58 1016.0
20260508001720 74 248 4.0 4.0 0.00 0.00 0.01 58 1016.0
20260508000640 73 203 4.0 4.0 0.00 0.00 0.01 58 1016.0
20260508000125 73 248 4.0 4.0 0.00 0.00 0.01 58 1016.0
20260507235120 71 270 4.0 4.0 0.00 0.00 0.01 59 1016.0
20260507234545 72 225 6.0 6.0 0.00 0.00 0.01 59 1016.0
20260507234025 72 225 6.0 6.0 0.00 0.00 0.01 58 1016.0
20260507233505 72 270 5.0 5.0 0.00 0.00 0.01 58 1016.0
20260507232951 73 225 6.0 6.0 0.00 0.00 0.01 58 1016.2
20260507231910 73 270 5.0 5.0 0.00 0.00 0.01 58 1016.2
20260507231350 73 225 5.0 5.0 0.00 0.00 0.01 58 1016.2
20260507230835 75 270 5.0 5.0 0.00 0.00 0.01 57 1016.2
20260507230315 75 338 5.0 5.0 0.00 0.00 0.01 57 1016.4
20260507225755 75 225 5.0 5.0 0.00 0.00 0.01 57 1016.4
20260507224720 77 225 6.0 6.0 0.00 0.00 0.01 56 1016.5
20260507224200 77 203 5.0 5.0 0.00 0.00 0.01 56 1016.5
20260507223640 78 225 5.0 5.0 0.00 0.00 0.01 56 1016.5
20260507223120 78 225 5.0 5.0 0.00 0.00 0.01 55 1016.7
20260507222606 80 270 5.0 5.0 0.00 0.00 0.01 55 1016.7
20260507222045 81 203 5.0 5.0 0.00 0.00 0.01 54 1016.7
20260507221526 82 225 3.0 3.0 0.00 0.00 0.01 54 1016.7
20260507215930 84 158 4.0 4.0 0.00 0.00 0.01 53 1016.7
20260507215410 83 180 3.0 3.0 0.00 0.00 0.01 54 1016.9
20260507214850 84 270 5.0 5.0 0.00 0.00 0.01 53 1016.9
20260507213815 82 338 3.0 3.0 0.00 0.00 0.01 55 1017.1
20260507213255 82 113 3.0 3.0 0.00 0.00 0.01 55 1017.1
20260507212735 79 45 4.0 4.0 0.00 0.00 0.01 56 1017.3
20260507212215 82 68 3.0 3.0 0.00 0.00 0.01 56 1017.3
20260507211140 80 68 3.0 3.0 0.00 0.00 0.01 57 1017.3
20260507210621 80 270 4.0 4.0 0.00 0.00 0.01 58 1017.3
20260507210100 79 270 4.0 4.0 0.00 0.00 0.01 57 1017.3
20260507205546 79 135 4.0 4.0 0.00 0.00 0.01 57 1017.5
20260507205026 78 248 3.0 3.0 0.00 0.00 0.01 59 1017.5
20260507204505 77 203 4.0 4.0 0.00 0.00 0.01 59 1017.5
20260507203945 78 203 4.0 4.0 0.00 0.00 0.01 58 1017.6
20260507203431 77 180 4.0 4.0 0.00 0.00 0.01 59 1017.6